Regional Weather Roundup
Issued by NWS

Home | Current Version | Previous Version | Text Only | Print | Product List | Glossary On
Versions: 1 2 3 4 5 6 7 8 9 10 11 12 13 14 15 16 17 18 19 20 21 22 23 24 25 26 27 28 29 30 31 32 33 34 35 36 37 38 39 40 41 42 43 44 45 46 47 48 49 50
808
ASUS43 KMKX 100500
RWRWI

WISCONSIN REGIONAL WEATHER ROUNDUP
NATIONAL WEATHER SERVICE MILWAUKEE/SULLIVAN WI
1100 PM CST TUE FEB 09 2016

NOTE: "FAIR" INDICATES FEW OR NO CLOUDS BELOW 12,000 FEET WITH NO
SIGNIFICANT WEATHER AND/OR OBSTRUCTIONS TO VISIBILITY.

WIZ001-002-006>008-014>016-023>028-100600-
NORTHWEST WISCONSIN

CITY           SKY/WX    TMP DP  RH WIND       PRES   REMARKS
SUPERIOR ARPT  MOCLDY     3  -5  68 N3        30.16S
ASHLAND        FLURRIES   6  -1  73 N13       30.09S WCI -10
HAYWARD        LGT SNOW   4  -3  73 N5        30.06S WCI  -5
SIREN          CLEAR      3  -6  65 NW6       30.12S WCI  -8
CUMBERLAND     CLEAR      3  -8  60 N14       30.07R WCI -15
RICE LAKE      CLEAR      5  -6  61 NW7       30.09S WCI  -7
CHETEK         CLEAR      3  -6  64 MISG      30.07S
LADYSMITH      CLOUDY     8   0  70 NW13      30.04R WCI  -8
EAU CLAIRE     NOT AVBL
MENOMONIE      CLEAR      7  -6  53 NW8       30.10R WCI  -5
NEW RICHMOND   CLOUDY     4  -5  65 NW9       30.12R WCI -10
OSCEOLA        CLEAR      7  -3  63 NW8       30.16S WCI  -6
$$

WIZ003>005-009-010-017-018-100600-
NORTH CENTRAL WISCONSIN

CITY           SKY/WX    TMP DP  RH WIND       PRES   REMARKS
MANITOWISH WTR CLOUDY     6   1  80 N9G17     29.93S HAZE    WCI  -8
ARBOR VITAE    CLOUDY     9   2  73 N10       29.92R WCI  -5
WOODRUFF       CLOUDY     9   2  73 N10       29.92R WCI  -5
RHINELANDER    LGT SNOW   7   2  80 NW9       29.91R VSB 1   WCI  -7
EAGLE RIVER    CLOUDY     7  -1  71 N14G22    29.90R HAZE    WCI -10
LAND O LAKES   LGT SNOW   7   2  80 N14       29.91R WCI -10
PHILLIPS       CLOUDY     5  -1  76 NW9       29.97R WCI  -9
TOMAHAWK       CLOUDY     7   1  75 NW7       29.94S WCI  -4
MEDFORD        CLOUDY     7  -1  71 NW12      29.95S WCI  -9
MERRILL        CLOUDY     9   1  68 NW9       29.95S WCI  -4
$$

WIZ029-030-035-036-043>047-100600-
CENTRAL WISCONSIN

CITY           SKY/WX    TMP DP  RH WIND       PRES   REMARKS
WAUSAU         CLOUDY    11   0  61 N18G28    29.94S WCI  -7
MOSINEE        CLOUDY    10   1  67 N12       29.96S WCI  -4
MARSHFIELD     CLOUDY    10  -2  58 N12       29.97R WCI  -5
STEVENS POINT  CLOUDY     9  -2  62 NW8       29.97S WCI  -3
WAUPACA        CLOUDY    14   2  59 NW8       29.97F WCI   3
WAUTOMA        NOT AVBL
WISC RAPIDS    CLOUDY    10  -2  58 N14G23    30.00S WCI  -6
CAMP DOUGLAS   NOT AVBL
$$

WIZ011>013-019>022-031-037>040-048>050-100600-
NORTHEAST WISCONSIN

CITY           SKY/WX    TMP DP  RH WIND       PRES   REMARKS
ANTIGO         CLOUDY     8   0  70 N14       29.90S WCI  -8
SHAWANO        CLOUDY    15   0  51 NW9       29.95S WCI   3
OCONTO         PTCLDY    12   0  58 NW8G17    29.93S WCI   0
STURGEON BAY   CLOUDY    12   1  62 NW20G25   29.90S WCI  -6
GREEN BAY      PTCLDY    12   1  61 NW12      29.93S WCI  -2
MANITOWOC      NOT AVBL
APPLETON       MOCLDY    12  -2  52 NW17      29.91F WCI  -5
CLINTONVILLE   CLOUDY    14   0  52 NW14G20   29.95S WCI  -1
OSHKOSH        PTCLDY    12   0  58 NW15      29.94S WCI  -4
$$

WIZ032>034-041-042-053>061-100600-
SOUTHWEST WISCONSIN

CITY           SKY/WX    TMP DP  RH WIND       PRES   REMARKS
LA CROSSE      PTCLDY     5  -5  63 NW9       30.09R WCI  -9
SPARTA         CLEAR     -6  -9  88 CALM      30.06S
VIROQUA        PTCLDY     4  -4  69 NW9       30.00S WCI -10
BOSCOBEL       CLEAR      5  -2  72 CALM      30.07S
PRAIRIE DU CHI CLEAR      9  -3  58 NW7       30.08S WCI  -3
PLATTEVILLE    CLEAR      7   0  72 W6        30.02S WCI  -3
$$

WIZ056-057-062-063-064-067-068-100600-
SOUTH CENTRAL WISCONSIN

CITY           SKY/WX    TMP DP  RH WIND       PRES   REMARKS
REEDSBURG      CLOUDY     8   0  68 NW8       30.01S WCI  -4
BARABOO/DELLS  CLOUDY     9   0  65 NW7       29.99S WCI  -2
LONE ROCK      CLEAR      9  -2  61 NW8       30.04F WCI  -3
MINERAL POINT  CLEAR      9   0  66 NW7       29.99F WCI  -3
MADISON        CLOUDY    11   0  61 NW10      29.98S WCI  -3
MIDDLETON      MOCLDY    11   2  65 NW6       29.99F WCI   2
WATERTOWN      CLOUDY    12   3  68 NW12      29.95S WCI  -2
MONROE         CLEAR     10   1  67 NW10G16   29.97F WCI  -3
JANESVILLE     CLOUDY    14   3  62 NW13      29.97F WCI   0
$$

WIZ051-052-058>065-066-070>072-100600-
SOUTHEAST WISCONSIN

CITY           SKY/WX    TMP DP  RH WIND       PRES   REMARKS
MILWAUKEE      FLURRIES  15   8  73 NW13      29.93R WCI   1
WAUKESHA       MOCLDY    12   3  67 NW16      29.93S WCI  -4
MILWAUKEE/TIMM CLOUDY    14   9  79 NW12      29.94R WCI   0
RACINE         LGT SNOW  15   8  73 NW8G18    29.94R WCI   4
BURLINGTON     CLOUDY    12   3  67 NW16G22   29.94S WCI  -4
KENOSHA        CLOUDY    15   5  64 NW13      29.93R WCI   1
FOND DU LAC    CLOUDY    13   1  59 NW18      29.95R WCI  -4
SHEBOYGAN      MOCLDY    13   4  67 NW12      29.90F WCI  -1
WEST BEND      PTCLDY    12   3  67 NW10G16   29.91S WCI  -1
JUNEAU         MOCLDY    10   2  70 NW10G16   29.95S WCI  -3
$$

LSZ147-162-100600-
LAKE SUPERIOR

STATION/POSITION TIME  TEMP    WIND        PRES    WAVE
                       AIR SEA DIR/SP/G            HT/PER
                 (UTC) (F)     (DEG/KT/KT) (MB)    (FT/S)
DEVILS ISLAND    0400    7     360/ 21/ 24 1021.1R
PORT WING        0400    9     340/ 13/ 22 1020.3S
SAXON HARBOR     0400   11                 1017.9
$$

LMZ867-665-643>646-100600-
LAKE MICHIGAN

STATION/POSITION TIME  TEMP    WIND        PRES    WAVE
                       AIR SEA DIR/SP/G            HT/PER
                 (UTC) (F)     (DEG/KT/KT) (MB)    (FT/S)
CHAMBERS ISLAND  0400   14     300/ 15/ 22 1011.9F
ALGOMA LAKESHORE 0411          330/ 12/ 18   N/A
KEWAUNEE LAKESHO 0400   13     360/  9/ 15 1011.8F
SHEBOYGAN LAKESH 0400   14     320/ 15/ 17 1014.4S
PORT WASHINGTON  0440   15     300/  7/ 16 1014.2F
MILWAUKEE LAKESH 0410   16     300/  8/ 10   N/A
KENOSHA   LAKESH 0400   15     300/ 13/ 20 1013.2S
$$

TC  - TEMPERATURE IN CELSIUS
VSB - VISIBILITY IN STATUTE MILES
WCI - WIND CHILL INDEX
HX  - HEAT INDEX





USA.gov is the U.S. government's official web portal to all federal, state and local government web resources and services.